This demonstration page uses our WeatherBlox Daily Observations layout. Learn more.

Left ArrowRight Arrow

Hourly Observations for December 29, 2020

Temp ( °F °C ) Dew Point ( °F °C ) Humidity (%) Winds ( mph kmh ) Pressure ( in mb ) Visibility ( mi km ) Precip ( " mm )
12:52 am 00:52 Cloudy 24 -4.4 17 -8.3 75 75 S 7 11 30.48 1032 10 16 0.00 0.00
1:52 am 01:52 Cloudy 24 -4.4 17 -8.3 75 75 SSE 9 15 30.47 1032 10 16 0.00 0.00
2:52 am 02:52 Cloudy 24 -4.4 16 -8.9 71 71 ESE 7 11 30.43 1030 10 16 0.00 0.00
3:52 am 03:52 Cloudy 25 -3.9 16 -8.9 69 69 ESE 10 17 30.40 1029 10 16 0.00 0.00
4:52 am 04:52 Cloudy 25 -3.9 16 -8.9 69 69 SE 15 24 30.38 1029 10 16 0.00 0.00
4:58 am 04:58 Cloudy with Light Snow 25 -3.9 17 -8.3 72 72 SE 14 22 30.41 1030 2 3 0.00 0.00
5:04 am 05:04 Cloudy with Light Snow 24 -4.4 18 -7.8 77 77 SE 14 22 30.41 1030 2 2 0.00 0.00
5:07 am 05:07 Cloudy with Light Snow 24 -4.4 18 -7.8 77 77 SE 15 24 30.41 1030 1 1 0.00 0.00
5:23 am 05:23 Mostly Cloudy with Light Snow 23 -5 20 -6.7 88 88 SE 13 20 30.41 1030 1 1 0.00 0.00
5:48 am 05:48 Mostly Cloudy with Light Snow 23 -5 19 -7 86 86 SSE 9 15 30.42 1030 1 2 0.00 0.00
5:52 am 05:52 Mostly Cloudy with Light Snow 23 -5 20 -6.7 88 88 SE 12 19 30.38 1029 1 2 0.01 0.25
6:26 am 06:26 Cloudy with Light Snow 23 -5 20 -6.7 88 88 SE 12 19 30.39 1029 1 2 0.02 0.51
6:32 am 06:32 Mostly Cloudy with Light Snow 23 -5 20 -6.7 88 88 SE 13 20 30.39 1029 1 2 0.02 0.51
6:35 am 06:35 Mostly Cloudy with Light Snow 23 -5 20 -6.7 88 88 SE 12 19 30.39 1029 1 1 0.02 0.51
6:52 am 06:52 Mostly Cloudy with Light Snow 23 -5 20 -6.7 88 88 SE 13 20 30.35 1028 1 1 0.02 0.51
7:32 am 07:32 Mostly Cloudy with Light Snow 23 -5 20 -6.7 88 88 SE 14 22 30.37 1029 1 2 0.05 1.27
7:52 am 07:52 Mostly Cloudy with Light Snow 23 -5 20 -6.7 88 88 SE 13 20 30.32 1027 1 2 0.06 1.52
8:17 am 08:17 Mostly Cloudy with Snow 23 -5 20 -6.7 88 88 SE 14 22 30.33 1027 1 1 0.01 0.25
8:52 am 08:52 Mostly Cloudy with Light Snow 24 -4.4 21 -6.1 88 88 SE 13 20 30.29 1026 1 1 0.02 0.51
9:44 am 09:44 Cloudy with Light Snow 24 -4.4 21 -6.1 88 88 ESE 16 26 30.27 1025 1 2 0.04 1.02
9:52 am 09:52 Cloudy with Light Snow 24 -4.4 21 -6.1 88 88 SE 14 22 30.25 1024 1 2 0.05 1.27
10:01 am 10:01 Cloudy with Light Snow 24 -4.4 21 -6.1 88 88 SE 15 24 30.28 1025 2 3 0.00 0.00
10:16 am 10:16 Mostly Cloudy with Light Snow 24 -4.4 21 -6.1 88 88 SE 18 30 30.26 1025 1 1 0.01 0.25
10:30 am 10:30 Mostly Cloudy with Light Snow 24 -4.4 22 -5.6 91 91 SE 12 19 30.27 1025 1 1 0.03 0.76
10:40 am 10:40 Mostly Cloudy with Heavy Snow 24 -4.4 22 -5.6 91 91 ESE 13 20 30.24 1024 0 0 0.05 1.27
10:52 am 10:52 Mostly Cloudy with Heavy Snow 24 -4.4 22 -5.6 91 91 ESE 13 20 30.19 1023 0 0 0.08 2.03
11:38 am 11:38 Mostly Cloudy with Snow 24 -4.4 22 -5.6 91 91 ESE 13 20 30.17 1022 1 1 0.09 2.29
11:52 am 11:52 Mostly Cloudy with Snow 25 -3.9 22 -5.6 88 88 ESE 16 26 30.12 1020 1 1 0.11 2.79
12:40 pm 12:40 Mostly Cloudy with Light Snow 25 -3.9 23 -5 92 92 SE 12 19 30.12 1020 1 1 0.08 2.03
12:52 pm 12:52 Mostly Cloudy with Snow 25 -3.9 23 -5 92 92 SE 12 19 30.07 1018 1 1 0.09 2.29
1:12 pm 13:12 Cloudy with Light Snow 26 -3.3 23 -5 88 88 SE 14 22 30.09 1019 1 1 0.02 0.51
1:40 pm 13:40 Cloudy with Light Snow 26 -3.3 24 -4.4 92 92 SSE 15 24 30.07 1018 2 3 0.04 1.02
1:52 pm 13:52 Cloudy with Light Snow 26 -3.3 24 -4.4 92 92 SE 13 20 30.02 1017 1 2 0.04 1.02
2:19 pm 14:19 Cloudy with Light Snow 27 -2.8 24 -4.4 89 89 SE 14 22 30.02 1017 2 3 0.02 0.51
2:24 pm 14:24 Cloudy with Light Snow 27 -2.8 24 -4.4 89 89 SE 12 19 30.02 1017 4 6 0.03 0.76
2:31 pm 14:31 Cloudy with Mist and Fog 27 -2.8 25 -3.9 92 92 SE 9 15 30.02 1017 4 6 0.03 0.76
2:44 pm 14:44 Cloudy 27 -2.8 25 -3.9 92 92 SE 10 17 30.01 1016 7 11 0.03 0.76
2:52 pm 14:52 Cloudy 28 -2.2 25 -3.9 88 88 SE 10 17 29.98 1015 7 11 0.03 0.76
3:52 pm 15:52 Cloudy 29 -1.7 27 -2.8 92 92 SE 7 11 29.96 1015 7 11 0.00 0.00
4:16 pm 16:16 Cloudy 30 -1.1 27 -2.8 88 88 SE 8 13 29.98 1015 7 11 0.00 0.00
4:18 pm 16:18 Cloudy 30 -1.1 27 -2.8 88 88 SE 9 15 29.98 1015 7 11 0.00 0.00
4:52 pm 16:52 Cloudy 30 -1.1 28 -2.2 92 92 SSE 6 9 29.95 1014 7 11 0.00 0.00
5:03 pm 17:03 Cloudy with Light Freezing Drizzle 30 -1.1 29 -1.7 96 96 SSE 6 9 29.98 1015 4 6 0.00 0.00
5:52 pm 17:52 Cloudy with Light Freezing Drizzle 30 -1.1 29 -1.7 96 96 SSW 3 6 29.95 1014 3 5 0.00 0.00
6:06 pm 18:06 Cloudy with Light Freezing Drizzle 31 -0.6 29 -1.7 92 92 SSW 5 7 29.96 1015 3 5 0.00 0.00
6:41 pm 18:41 Cloudy with Light Freezing Drizzle 29 -1.7 28 -2.2 96 96 NNW 3 6 29.97 1015 3 5 0.00 0.00
6:44 pm 18:44 Cloudy with Light Freezing Drizzle 29 -1.7 28 -2.2 96 96 NNW 3 6 29.97 1015 2 3 0.00 0.00
6:46 pm 18:46 Cloudy with Light Freezing Drizzle 28 -2 28 -2 100 100 NNW 3 6 29.97 1015 2 3 0.00 0.00
6:52 pm 18:52 Cloudy with Light Freezing Drizzle 29 -1.7 28 -2.2 96 96 NNW 3 6 29.94 1014 2 3 0.00 0.00
7:52 pm 19:52 Cloudy with Light Freezing Drizzle 30 -1.1 29 -1.7 96 96 Calm 29.94 1014 2 3 0.00 0.00
8:07 pm 20:07 Cloudy with Light Freezing Drizzle 30 -1.1 29 -1.7 96 96 Calm 29.97 1015 2 3 0.00 0.00
8:16 pm 20:16 Cloudy with Light Freezing Drizzle 30 -1.1 29 -1.7 96 96 Calm 29.97 1015 2 3 0.00 0.00
8:40 pm 20:40 Cloudy with Mist and Fog 30 -1.1 29 -1.7 96 96 Calm 29.98 1015 4 6 0.00 0.00
8:52 pm 20:52 Cloudy with Mist and Fog 30 -1.1 29 -1.7 96 96 Calm 29.95 1014 4 6 0.00 0.00
9:52 pm 21:52 Cloudy 31 -0.6 29 -1.7 92 92 W 8 13 29.96 1014 7 11 0.00 0.00
10:17 pm 22:17 Cloudy 30 -1.1 27 -2.8 88 88 W 15 24 29.98 1015 10 16 0.00 0.00
10:52 pm 22:52 Cloudy 29 -1.7 26 -3.3 89 89 WNW 12 19 29.97 1015 10 16 0.00 0.00
11:52 pm 23:52 Mostly Cloudy 28 -2.2 24 -4.4 85 85 WNW 10 17 29.99 1016 10 16 0.00 0.00

Powered by AerisWeather